FW6321 Weather Reports


Display with metric or nautical units.
time (UTC)temp
F
wind
direction
speed
MPH
gust
MPH
rain 1hr
in
rain 24hr
in
rain mn
in
humidity
%
barometer
mb
20260901021959 62 218 2.0 4.0 0.00 0.20 0.14 97 1017.6
20260901021457 61 214 2.0 5.0 0.00 0.20 0.14 97 1017.7
20260901020958 61 230 2.0 5.0 0.00 0.20 0.14 97 1017.7
20260901020929 61 199 2.0 5.0 0.00 0.20 0.14 97 1017.6
20260901015956 61 193 2.0 5.0 0.00 0.20 0.14 97 1017.6
20260901015932 61 177 2.0 5.0 0.00 0.20 0.14 97 1017.6
20260901015436 60 175 2.0 4.0 0.00 0.20 0.14 97 1017.5
20260901014931 60 185 2.0 4.0 0.00 0.20 0.14 97 1017.6
20260901013954 60 187 1.0 4.0 0.00 0.20 0.14 96 1017.6
20260901013454 60 205 1.0 3.0 0.00 0.20 0.14 96 1017.5
20260901012950 60 206 1.0 3.0 0.00 0.20 0.14 96 1017.5
20260901012452 60 181 0.0 2.0 0.00 0.20 0.14 96 1017.5
20260901011949 60 168 0.0 2.0 0.00 0.20 0.14 96 1017.4
20260901011914 60 168 2.0 5.0 0.00 0.20 0.14 96 1017.5
20260901011652 60 168 1.0 5.0 0.00 0.20 0.14 96 1017.4
20260901010447 60 177 2.0 4.0 0.00 0.20 0.14 96 1017.5
20260901005948 60 183 2.0 5.0 0.00 0.20 0.14 96 1017.6
20260901005448 60 187 3.0 6.0 0.00 0.20 0.14 96 1017.6
20260901004949 60 199 3.0 6.0 0.00 0.20 0.14 95 1017.5
20260901004448 60 181 2.0 5.0 0.00 0.20 0.14 95 1017.5
20260901003944 60 185 2.0 4.0 0.00 0.20 0.14 95 1017.5
20260901003444 60 186 2.0 5.0 0.00 0.20 0.14 95 1017.4
20260901002944 60 188 3.0 5.0 0.00 0.20 0.14 95 1017.5
20260901002925 60 172 3.0 4.0 0.00 0.20 0.14 95 1017.5
20260901001946 60 183 2.0 4.0 0.00 0.20 0.14 95 1017.5
20260901001444 60 183 2.0 4.0 0.00 0.20 0.14 95 1017.5
20260901000945 60 188 2.0 4.0 0.00 0.20 0.14 95 1017.4
20260901000450 60 199 2.0 5.0 0.00 0.20 0.14 94 1017.4
20260831235946 60 201 2.0 5.0 0.00 0.20 0.14 95 1017.4
20260831235444 61 183 3.0 5.0 0.00 0.20 0.14 94 1017.3
20260831234945 61 183 3.0 6.0 0.00 0.20 0.14 94 1017.4
20260831234443 61 187 3.0 7.0 0.00 0.20 0.14 94 1017.3
20260831233944 61 191 3.0 7.0 0.00 0.20 0.14 94 1017.4
20260831233446 61 185 3.0 5.0 0.00 0.20 0.14 94 1017.4
20260831232945 61 172 3.0 8.0 0.02 0.20 0.14 94 1017.4
20260831232443 61 181 3.0 8.0 0.06 0.20 0.14 93 1017.3
20260831231941 61 180 3.0 5.0 0.14 0.20 0.14 93 1017.4
20260831231442 61 177 2.0 4.0 0.14 0.20 0.14 93 1017.3
20260831230936 61 212 2.0 6.0 0.14 0.20 0.14 93 1017.2
20260831230924 61 217 3.0 10.0 0.14 0.20 0.14 92 1017.1
20260831225935 62 237 3.0 10.0 0.14 0.20 0.14 92 1017.2
20260831225438 62 206 3.0 8.0 0.14 0.20 0.14 93 1017.3
20260831224935 63 218 3.0 8.0 0.14 0.20 0.14 92 1017.2
20260831224438 63 246 4.0 9.0 0.14 0.20 0.14 92 1017.2
20260831223934 64 198 4.0 9.0 0.14 0.20 0.14 92 1017.2
20260831223435 64 175 4.0 10.0 0.14 0.20 0.14 92 1017.0
20260831222948 65 256 6.0 14.0 0.08 0.14 0.08 92 1017.2
20260831222933 65 251 6.0 14.0 0.12 0.18 0.11 92 1017.1
20260831221932 65 254 6.0 9.0 0.00 0.06 0.00 91 1017.3
20260831221432 65 219 5.0 9.0 0.00 0.06 0.00 91 1017.0
20260831220933 65 171 4.0 9.0 0.00 0.06 0.00 91 1016.9
20260831220432 65 214 5.0 11.0 0.00 0.06 0.00 91 1016.9
20260831215932 65 218 5.0 11.0 0.00 0.06 0.06 91 1016.8
20260831215430 65 196 5.0 13.0 0.00 0.06 0.06 91 1016.7
20260831214944 65 199 5.0 11.0 0.00 0.06 0.06 91 1016.8
20260831214933 65 245 4.0 13.0 0.00 0.06 0.06 91 1016.7
20260831213934 65 215 5.0 10.0 0.00 0.06 0.06 92 1016.8
20260831213929 65 216 5.0 11.0 0.00 0.06 0.06 92 1016.7
20260831212932 65 226 5.0 11.0 0.00 0.06 0.06 92 1016.7
20260831212431 65 233 5.0 11.0 0.00 0.06 0.06 91 1016.7
20260831211933 65 227 5.0 11.0 0.00 0.06 0.06 91 1016.6
20260831211907 66 201 5.0 11.0 0.00 0.06 0.06 92 1016.6
20260831210932 66 189 5.0 11.0 0.00 0.06 0.06 91 1016.6
20260831210432 66 238 4.0 9.0 0.00 0.06 0.06 91 1016.5
20260831205934 66 214 4.0 9.0 0.00 0.06 0.06 91 1016.4
20260831205913 66 233 4.0 8.0 0.00 0.06 0.06 90 1016.4
20260831204930 66 213 4.0 13.0 0.00 0.06 0.06 90 1016.4
20260831204431 66 218 5.0 13.0 0.00 0.06 0.06 89 1016.5
20260831204412 66 210 5.0 12.0 0.00 0.06 0.06 89 1016.4
20260831203434 66 217 5.0 11.0 0.00 0.06 0.06 89 1016.3
20260831202931 66 229 5.0 11.0 0.00 0.06 0.06 88 1016.3
20260831202430 66 215 5.0 11.0 0.00 0.06 0.06 88 1016.3
20260831201933 66 237 5.0 10.0 0.00 0.06 0.06 88 1016.3
20260831201433 66 248 6.0 12.0 0.00 0.06 0.06 88 1016.3
20260831200931 66 206 6.0 12.0 0.00 0.06 0.06 87 1016.2
20260831200432 66 235 6.0 13.0 0.00 0.06 0.06 87 1016.2
20260831195932 66 220 7.0 13.0 0.00 0.06 0.06 87 1016.2
20260831195431 66 255 5.0 11.0 0.00 0.06 0.06 87 1016.1
20260831194933 66 233 5.0 13.0 0.00 0.06 0.06 87 1016.1
20260831194915 66 210 5.0 13.0 0.00 0.06 0.06 86 1015.9
20260831193933 66 204 4.0 10.0 0.00 0.06 0.06 86 1015.9
20260831193431 65 229 5.0 8.0 0.00 0.06 0.06 85 1015.8
20260831192932 65 236 5.0 10.0 0.00 0.06 0.06 84 1015.8
20260831192906 65 216 5.0 10.0 0.00 0.06 0.06 83 1015.8
20260831191930 65 229 5.0 9.0 0.00 0.06 0.06 83 1015.6
20260831191431 66 235 4.0 9.0 0.00 0.06 0.06 82 1015.6
20260831191417 66 181 4.0 10.0 0.00 0.06 0.06 82 1015.5
20260831190433 66 212 5.0 10.0 0.00 0.06 0.06 82 1015.4
20260831190418 66 242 5.0 10.0 0.00 0.06 0.06 81 1015.4
20260831185915 66 204 4.0 10.0 0.00 0.06 0.06 81 1015.4
20260831184931 66 205 4.0 8.0 0.00 0.06 0.06 81 1015.3
20260831184430 66 229 4.0 9.0 0.00 0.06 0.06 80 1015.3
20260831183932 66 210 4.0 9.0 0.00 0.06 0.06 80 1015.3
20260831183431 66 254 4.0 8.0 0.00 0.06 0.06 80 1015.2
20260831182931 66 225 5.0 12.0 0.00 0.06 0.06 80 1015.0
20260831182432 66 240 5.0 12.0 0.00 0.06 0.06 80 1015.1
20260831181932 66 241 5.0 11.0 0.00 0.06 0.06 79 1014.9
20260831181434 66 197 6.0 12.0 0.00 0.06 0.06 79 1014.8
20260831180932 66 243 7.0 13.0 0.00 0.06 0.06 79 1014.8
20260831180432 66 224 7.0 13.0 0.00 0.06 0.06 79 1014.6
20260831175931 67 240 7.0 14.0 0.00 0.06 0.06 79 1014.6
20260831175430 67 210 9.0 19.0 0.00 0.06 0.06 79 1014.5
20260831174931 67 230 8.0 19.0 0.00 0.06 0.06 79 1014.5
20260831174430 67 232 8.0 17.0 0.00 0.06 0.06 79 1014.5
20260831173932 67 204 9.0 17.0 0.00 0.06 0.06 79 1014.3
20260831173432 67 237 9.0 17.0 0.00 0.06 0.06 79 1014.2
20260831172933 67 255 10.0 17.0 0.00 0.06 0.06 80 1014.3
20260831172432 67 232 10.0 17.0 0.00 0.06 0.06 80 1014.2
20260831171933 67 245 9.0 15.0 0.00 0.06 0.06 81 1014.2
20260831171432 66 235 8.0 15.0 0.00 0.06 0.06 83 1014.0
20260831170933 66 229 8.0 15.0 0.01 0.06 0.06 84 1014.0
20260831170436 66 241 8.0 13.0 0.01 0.06 0.06 85 1013.8
20260831165932 65 233 6.0 14.0 0.01 0.06 0.06 86 1013.8
20260831165432 65 239 4.0 14.0 0.01 0.06 0.06 86 1013.7
20260831164928 65 253 4.0 9.0 0.01 0.06 0.06 86 1013.7
20260831164427 65 249 5.0 9.0 0.01 0.06 0.06 86 1013.8
20260831163928 65 248 5.0 12.0 0.01 0.06 0.06 86 1013.7
20260831163915 65 262 6.0 12.0 0.01 0.06 0.06 85 1013.7
20260831163407 65 212 7.0 14.0 0.01 0.06 0.06 84 1013.6
20260831162430 65 237 9.0 15.0 0.01 0.06 0.06 83 1013.5
20260831161931 65 233 10.0 18.0 0.01 0.06 0.06 82 1013.6
20260831161430 66 234 11.0 21.0 0.01 0.06 0.06 81 1013.6
20260831160930 67 252 12.0 27.0 0.00 0.06 0.06 79 1013.6
20260831160428 68 241 12.0 27.0 0.00 0.06 0.06 77 1013.4
20260831155931 68 231 12.0 25.0 0.00 0.06 0.06 75 1013.3
20260831155428 68 270 12.0 25.0 0.00 0.06 0.06 74 1013.2
20260831154931 69 231 12.0 25.0 0.00 0.06 0.06 74 1013.1
20260831154919 69 187 12.0 25.0 0.00 0.06 0.06 74 1013.1
20260831153929 68 247 11.0 20.0 0.00 0.06 0.06 75 1013.0
20260831153428 68 250 11.0 20.0 0.00 0.06 0.06 76 1012.9
20260831152928 68 216 12.0 24.0 0.00 0.06 0.06 77 1013.0
20260831152428 68 211 12.0 24.0 0.00 0.06 0.06 76 1012.9
20260831151929 68 234 11.0 23.0 0.00 0.06 0.06 76 1012.9
20260831151918 68 230 10.0 23.0 0.00 0.06 0.06 76 1012.8
20260831150926 68 252 12.0 25.0 0.00 0.06 0.06 76 1012.7
20260831150905 68 249 12.0 24.0 0.00 0.06 0.06 74 1012.6
20260831150630 68 265 12.0 25.0 0.00 0.06 0.06 75 1012.7
20260831145913 69 235 14.0 25.0 0.00 0.06 0.06 74 1012.6
20260831144923 68 249 14.0 25.0 0.00 0.06 0.06 75 1012.6
20260831144424 68 223 15.0 26.0 0.00 0.06 0.06 74 1012.5
20260831143924 68 243 15.0 26.0 0.00 0.06 0.06 73 1012.5
20260831143915 69 254 13.0 26.0 0.00 0.06 0.06 72 1012.3
20260831142923 68 208 12.0 21.0 0.00 0.06 0.06 75 1012.3
20260831142423 68 241 13.0 27.0 0.00 0.06 0.06 75 1012.2
20260831141921 68 214 14.0 27.0 0.00 0.06 0.06 74 1012.1
20260831141416 68 231 13.0 28.0 0.00 0.06 0.06 73 1012.0
20260831140913 68 206 12.0 28.0 0.00 0.06 0.06 71 1011.9
20260831140857 69 229 13.0 27.0 0.00 0.06 0.06 70 1011.8
20260831140356 69 275 13.0 27.0 0.00 0.06 0.06 69 1011.6
20260831135414 69 214 12.0 27.0 0.00 0.06 0.06 70 1011.4
20260831135346 69 216 14.0 29.0 0.00 0.06 0.06 70 1011.4
20260831134414 69 235 14.0 29.0 0.00 0.06 0.06 69 1011.4
20260831133911 69 229 11.0 26.0 0.00 0.06 0.06 69 1011.4
20260831133410 70 242 13.0 30.0 0.00 0.06 0.06 70 1011.4
20260831132910 69 233 16.0 30.0 0.00 0.06 0.06 70 1011.2
20260831132410 69 180 16.0 30.0 0.00 0.06 0.06 69 1011.3
20260831132358 69 239 15.0 29.0 0.00 0.06 0.06 70 1011.3
20260831131410 70 239 14.0 31.0 0.00 0.06 0.06 68 1011.1
20260831130908 70 229 13.0 31.0 0.00 0.06 0.06 70 1011.0
20260831130404 69 233 11.0 20.0 0.00 0.06 0.06 74 1011.0
20260831125906 67 216 13.0 24.0 0.00 0.06 0.06 76 1010.9
20260831125404 68 241 15.0 29.0 0.00 0.06 0.06 74 1010.9
20260831124909 67 247 15.0 29.0 0.00 0.06 0.06 74 1010.6
20260831124403 68 227 14.0 28.0 0.00 0.06 0.06 74 1010.7
20260831123904 68 235 14.0 28.0 0.00 0.06 0.06 74 1010.6
20260831123357 68 251 11.0 24.0 0.00 0.06 0.06 74 1010.5
20260831122853 69 212 11.0 27.0 0.00 0.06 0.06 73 1010.6
20260831122345 69 236 12.0 27.0 0.00 0.06 0.06 71 1010.4
20260831121838 70 236 12.0 25.0 0.00 0.06 0.06 71 1010.5
20260831121335 69 229 14.0 25.0 0.00 0.06 0.06 71 1010.3
20260831120833 69 228 14.0 25.0 0.00 0.06 0.06 70 1010.2
20260831120333 69 281 15.0 33.0 0.00 0.06 0.06 70 1010.3
20260831115833 69 227 16.0 33.0 0.00 0.06 0.06 71 1010.3
20260831115331 68 236 15.0 29.0 0.00 0.06 0.06 72 1010.2
20260831115318 67 214 12.0 25.0 0.00 0.06 0.06 74 1010.1
20260831114817 67 278 12.0 25.0 0.00 0.06 0.06 75 1010.0
20260831114321 68 92 11.0 21.0 0.00 0.06 0.06 77 1010.0
20260831113334 68 219 9.0 21.0 0.00 0.06 0.06 78 1009.9
20260831113316 68 241 9.0 20.0 0.00 0.06 0.06 80 1009.8
20260831113041 68 192 8.0 20.0 0.00 0.06 0.06 80 1009.9
20260831112315 68 188 9.0 19.0 0.00 0.06 0.06 79 1009.7
20260831111332 68 252 10.0 20.0 0.00 0.06 0.06 80 1009.7
20260831110832 67 237 10.0 20.0 0.00 0.06 0.06 81 1009.7
20260831110333 67 270 9.0 18.0 0.00 0.06 0.06 83 1009.7
20260831105830 66 220 10.0 29.0 0.00 0.06 0.06 84 1009.8
20260831105333 67 221 11.0 29.0 0.00 0.06 0.06 80 1009.8
20260831104833 68 197 10.0 26.0 0.00 0.06 0.06 75 1009.7
20260831104327 68 226 11.0 23.0 0.00 0.06 0.06 74 1009.7
20260831103827 69 230 11.0 25.0 0.00 0.06 0.06 74 1009.5
20260831103325 69 257 10.0 25.0 0.00 0.06 0.06 74 1009.5
20260831102827 68 237 10.0 25.0 0.00 0.06 0.06 77 1009.4
20260831102327 67 245 10.0 25.0 0.00 0.06 0.06 76 1009.3
20260831101828 67 219 9.0 21.0 0.00 0.06 0.06 76 1009.3
20260831101326 67 220 10.0 23.0 0.00 0.06 0.06 77 1009.3
20260831100827 67 204 11.0 23.0 0.00 0.06 0.06 76 1009.4
20260831100326 68 236 10.0 21.0 0.00 0.06 0.06 76 1009.3
20260831095825 68 264 9.0 20.0 0.00 0.06 0.06 76 1009.3
20260831095327 68 202 8.0 20.0 0.00 0.06 0.06 76 1009.1
20260831094825 68 231 10.0 19.0 0.00 0.06 0.06 77 1009.2
20260831094327 67 227 12.0 24.0 0.00 0.06 0.06 78 1009.2
20260831093826 67 245 13.0 24.0 0.00 0.06 0.06 78 1009.2
20260831093327 67 213 11.0 28.0 0.00 0.06 0.06 79 1009.3
20260831092826 67 210 10.0 28.0 0.00 0.06 0.06 80 1009.1
20260831092325 66 220 13.0 24.0 0.00 0.06 0.06 79 1009.2
20260831091827 66 206 13.0 30.0 0.00 0.06 0.06 80 1009.0
20260831091327 66 212 10.0 30.0 0.00 0.06 0.06 81 1009.0
20260831090825 66 239 10.0 23.0 0.00 0.06 0.06 82 1008.9
20260831090327 66 146 12.0 23.0 0.00 0.06 0.06 82 1009.0
20260831085824 65 227 13.0 24.0 0.00 0.06 0.06 82 1008.9
20260831085326 66 214 11.0 27.0 0.00 0.06 0.06 83 1008.8
20260831084825 65 175 10.0 27.0 0.00 0.06 0.06 85 1008.9
20260831084324 65 165 11.0 24.0 0.00 0.06 0.06 86 1008.8
20260831083823 65 235 13.0 26.0 0.00 0.06 0.06 85 1008.7
20260831083802 64 181 11.0 26.0 0.00 0.06 0.06 85 1008.6
20260831083310 64 278 11.0 23.0 0.00 0.06 0.06 86 1008.7
20260831082327 64 225 13.0 26.0 0.00 0.06 0.06 85 1008.6
20260831082316 64 283 13.0 27.0 0.00 0.06 0.06 86 1008.5
20260831081758 64 149 10.0 27.0 0.00 0.06 0.06 86 1008.5
20260831081300 64 183 9.0 23.0 0.00 0.06 0.06 86 1008.6
20260831080318 64 198 10.0 20.0 0.00 0.07 0.06 86 1008.4
20260831075820 64 202 11.0 28.0 0.00 0.07 0.06 87 1008.5
20260831075317 64 202 12.0 31.0 0.00 0.07 0.06 87 1008.5
20260831074817 63 194 10.0 31.0 0.00 0.08 0.06 87 1008.5
20260831074320 64 203 9.0 22.0 0.00 0.09 0.06 88 1008.5
20260831073819 64 216 9.0 16.0 0.00 0.09 0.06 89 1008.5
20260831073318 63 219 9.0 17.0 0.00 0.09 0.06 89 1008.4
20260831072818 63 214 9.0 19.0 0.01 0.09 0.06 90 1008.5
20260831072317 63 177 8.0 19.0 0.02 0.09 0.06 90 1008.4
20260831071820 63 179 9.0 23.0 0.02 0.09 0.06 91 1008.5
20260831071802 62 193 9.0 23.0 0.02 0.09 0.06 91 1008.6
20260831070810 62 216 8.0 17.0 0.02 0.09 0.06 92 1008.6
20260831070309 62 229 8.0 18.0 0.02 0.09 0.06 92 1008.5
20260831065812 62 174 8.0 22.0 0.02 0.09 0.06 92 1008.6
20260831065312 62 185 9.0 22.0 0.02 0.09 0.06 92 1008.7
20260831064826 62 179 9.0 21.0 0.06 0.09 0.06 92 1008.7
20260831064811 62 153 10.0 21.0 0.06 0.09 0.06 92 1008.7
20260831063812 62 154 8.0 19.0 0.06 0.09 0.06 93 1008.7
20260831063309 62 210 7.0 17.0 0.06 0.09 0.06 92 1009.0
20260831062810 62 176 6.0 15.0 0.05 0.09 0.05 92 1008.9
20260831062310 62 174 6.0 13.0 0.04 0.08 0.04 92 1009.0
20260831061809 62 214 6.0 13.0 0.04 0.08 0.04 92 1009.0
20260831061309 62 155 5.0 10.0 0.04 0.08 0.04 91 1008.9
20260831060809 62 181 6.0 17.0 0.04 0.08 0.04 91 1009.0
20260831060313 63 163 7.0 17.0 0.04 0.08 0.04 90 1008.9
20260831055810 63 172 8.0 17.0 0.04 0.08 0.04 89 1008.8
20260831055754 63 202 9.0 17.0 0.03 0.07 0.02 88 1008.6
20260831055249 64 196 8.0 19.0 0.00 0.04 0.00 88 1008.7
20260831054753 64 204 7.0 19.0 0.00 0.04 0.00 88 1008.6
20260831053806 63 116 7.0 17.0 0.00 0.04 0.00 89 1008.6
20260831053308 63 160 6.0 17.0 0.00 0.04 0.00 89 1008.5
20260831052809 63 218 6.0 16.0 0.00 0.04 0.00 89 1008.5
20260831052307 63 193 8.0 17.0 0.00 0.05 0.00 89 1008.5
20260831051803 63 181 7.0 17.0 0.00 0.05 0.00 89 1008.6
20260831051741 63 188 8.0 15.0 0.00 0.05 0.00 90 1008.6
20260831051509 63 254 7.0 16.0 0.00 0.05 0.00 90 1008.6
20260831050309 63 181 7.0 15.0 0.00 0.05 0.00 90 1008.5
20260831050255 63 226 6.0 11.0 0.00 0.06 0.00 90 1008.5
20260831045748 63 170 7.0 16.0 0.00 0.06 0.00 90 1008.6
20260831045233 63 174 7.0 16.0 0.00 0.06 0.00 90 1008.6
20260831044303 63 164 6.0 14.0 0.00 0.06 0.00 90 1008.7
20260831043800 63 182 6.0 14.0 0.00 0.06 0.00 90 1008.7
20260831043257 63 218 6.0 16.0 0.00 0.06 0.00 90 1008.9
20260831042757 63 156 6.0 18.0 0.00 0.06 0.00 90 1008.7
20260831042257 63 205 7.0 18.0 0.00 0.06 0.00 89 1008.5
20260831041756 63 195 8.0 18.0 0.00 0.06 0.00 89 1008.5
20260831041736 63 202 9.0 18.0 0.00 0.06 0.00 89 1008.4
20260831040756 63 172 8.0 17.0 0.00 0.06 0.00 89 1008.4
20260831040256 63 186 8.0 16.0 0.00 0.06 0.00 89 1008.5
20260831035754 63 178 8.0 16.0 0.00 0.06 0.00 89 1008.4
20260831035255 63 209 7.0 14.0 0.00 0.06 0.00 89 1008.6
20260831034755 63 188 7.0 15.0 0.00 0.06 0.00 88 1008.5
20260831034254 64 209 7.0 15.0 0.00 0.06 0.00 88 1008.7
20260831033756 64 169 8.0 17.0 0.00 0.06 0.00 88 1008.6
20260831033257 64 180 7.0 17.0 0.00 0.06 0.00 88 1008.6
20260831033236 64 210 6.0 12.0 0.00 0.06 0.00 88 1008.7
20260831032256 64 187 6.0 12.0 0.00 0.06 0.00 88 1008.7
20260831031750 64 204 7.0 15.0 0.00 0.06 0.00 88 1008.7
20260831031734 64 194 7.0 15.0 0.00 0.06 0.00 88 1008.7
20260831030748 64 219 6.0 12.0 0.00 0.06 0.00 88 1008.8
20260831030733 64 219 6.0 14.0 0.00 0.06 0.00 88 1009.1
20260831030449 64 212 6.0 12.0 0.00 0.06 0.00 88 1008.9
20260831025240 64 191 6.0 14.0 0.00 0.06 0.00 88 1009.0
20260831024740 64 243 6.0 14.0 0.00 0.06 0.00 88 1009.1
20260831024239 64 203 6.0 14.0 0.00 0.07 0.00 89 1009.1
20260831023738 64 247 6.0 15.0 0.00 0.07 0.00 89 1009.1
20260831023238 64 205 7.0 15.0 0.00 0.07 0.00 89 1009.0
20260831023213 64 200 7.0 16.0 0.00 0.07 0.00 89 1009.0